EW4676 Weather Reports


time (UTC)temp
C
wind
direction
speed
KPH
gust
KPH
rain 1hr
cm
rain 24hr
cm
rain mn
cm
humidity
%
barometer
mb
20260506195502 15 12 6.4 17.7 0.00 0.10 0.10 71 1014.2
20260506194952 15 43 6.4 16.1 0.00 0.10 0.10 72 1014.2
20260506194443 15 354 9.7 19.3 0.00 0.10 0.10 74 1014.1
20260506193934 15 336 9.7 19.3 0.00 0.10 0.10 74 1014.1
20260506193923 14 28 6.4 17.7 0.00 0.10 0.10 75 1014.3
20260506193528 15 267 8.0 17.7 0.00 0.10 0.10 73 1014.2
20260506192411 14 1 6.4 17.7 0.00 0.10 0.10 76 1014.4
20260506191904 14 325 6.4 14.5 0.00 0.10 0.10 76 1014.5
20260506191354 13 6 4.8 12.9 0.00 0.10 0.10 77 1014.5
20260506190843 13 2 3.2 12.9 0.00 0.10 0.10 77 1014.7
20260506190333 13 352 4.8 12.9 0.00 0.10 0.10 78 1014.7
20260506185823 13 334 4.8 16.1 0.00 0.10 0.10 77 1014.7
20260506185806 13 267 3.2 16.1 0.00 0.10 0.10 77 1014.7
20260506184805 13 267 3.2 11.3 0.00 0.10 0.10 77 1014.7
20260506184257 13 267 4.8 11.3 0.00 0.10 0.10 77 1014.7
20260506183745 13 24 4.8 11.3 0.00 0.10 0.10 77 1014.7
20260506183235 13 267 6.4 17.7 0.00 0.10 0.10 78 1014.7
20260506182727 13 267 6.4 17.7 0.00 0.10 0.10 77 1014.4
20260506182215 13 267 6.4 19.3 0.00 0.10 0.10 78 1014.0
20260506181705 13 30 9.7 27.4 0.00 0.10 0.10 78 1013.8
20260506181147 13 267 11.3 27.4 0.00 0.10 0.10 78 1013.5
20260506180638 13 267 14.5 27.4 0.00 0.10 0.10 79 1013.0
20260506180127 13 267 12.9 27.4 0.00 0.10 0.10 79 1013.0
20260506175617 13 267 11.3 24.1 0.00 0.10 0.10 80 1013.1
20260506175107 13 267 11.3 24.1 0.00 0.10 0.10 81 1013.4
20260506174557 12 357 12.9 24.1 0.00 0.10 0.10 82 1013.1
20260506174047 12 26 12.9 24.1 0.00 0.10 0.10 82 1013.4
20260506173537 12 33 9.7 19.3 0.00 0.10 0.10 82 1013.8
20260506173027 12 11 9.7 19.3 0.00 0.10 0.10 82 1014.1
20260506172517 12 19 11.3 22.5 0.00 0.10 0.10 83 1014.0
20260506172007 12 57 9.7 22.5 0.00 0.10 0.10 83 1014.0
20260506171449 12 23 9.7 19.3 0.00 0.10 0.10 83 1013.9
20260506170939 12 20 9.7 20.9 0.00 0.10 0.10 83 1013.9
20260506170429 12 30 8.0 20.9 0.00 0.10 0.10 83 1014.1
20260506170414 12 22 8.0 19.3 0.00 0.10 0.10 83 1014.1
20260506165403 12 76 9.7 24.1 0.00 0.10 0.10 83 1014.1
20260506164853 12 58 8.0 24.1 0.00 0.10 0.10 83 1014.1
20260506164342 12 31 9.7 22.5 0.00 0.10 0.10 83 1014.1
20260506163833 12 62 12.9 22.5 0.00 0.10 0.10 83 1013.7
20260506163323 12 350 9.7 19.3 0.00 0.10 0.10 83 1013.9
20260506162813 12 49 9.7 22.5 0.00 0.10 0.10 83 1014.0
20260506162306 12 22 9.7 22.5 0.00 0.10 0.10 83 1014.0
20260506161804 12 26 9.7 20.9 0.00 0.10 0.10 83 1014.1
20260506161253 12 37 9.7 20.9 0.00 0.10 0.10 83 1014.0
20260506160737 12 68 9.7 19.3 0.08 0.10 0.10 84 1014.0
20260506160222 12 9 8.0 17.7 0.10 0.10 0.10 83 1014.2
20260506155713 12 20 8.0 14.5 0.10 0.10 0.10 83 1014.2
20260506155203 12 347 6.4 16.1 0.10 0.10 0.10 83 1014.6
20260506154653 12 10 8.0 22.5 0.10 0.10 0.10 84 1014.0
20260506154143 12 31 9.7 22.5 0.10 0.10 0.10 83 1013.5
20260506153633 11 52 9.7 19.3 0.10 0.10 0.10 82 1013.4
20260506153123 11 91 11.3 20.9 0.10 0.10 0.10 82 1013.3
20260506152613 11 72 11.3 20.9 0.10 0.10 0.10 81 1013.2
20260506152102 11 57 6.4 19.3 0.10 0.10 0.10 81 1014.1
20260506151602 11 57 6.4 19.3 0.10 0.10 0.10 80 1015.2
20260506151224 12 24 4.8 16.1 0.00 0.00 0.00 78 1015.7
20260506151107 12 79 6.4 17.7 0.00 0.00 0.03 79 1014.1
20260506151102 12 46 8.0 19.3 0.08 0.08 0.08 80 1014.8
20260506145554 12 340 4.8 14.5 0.00 0.00 0.00 78 1015.4
20260506145044 12 359 4.8 14.5 0.00 0.00 0.00 78 1015.8
20260506144541 12 10 4.8 16.1 0.00 0.00 0.00 77 1015.3
20260506144031 12 338 6.4 22.5 0.00 0.00 0.00 77 1015.3
20260506143521 12 352 9.7 22.5 0.00 0.00 0.00 77 1015.8
20260506143011 12 18 12.9 25.7 0.00 0.00 0.00 76 1013.4
20260506142501 12 35 11.3 25.7 0.00 0.00 0.00 76 1013.8
20260506141951 12 54 9.7 22.5 0.00 0.00 0.00 76 1013.8
20260506141942 12 8 11.3 22.5 0.00 0.00 0.00 76 1014.1
20260506140931 12 359 11.3 20.9 0.00 0.00 0.00 76 1014.3
20260506140424 12 357 9.7 20.9 0.00 0.00 0.00 76 1014.2
20260506135922 12 350 9.7 20.9 0.00 0.00 0.00 75 1013.9
20260506135421 12 18 8.0 19.3 0.00 0.00 0.00 75 1014.1
20260506134911 12 353 8.0 17.7 0.00 0.00 0.00 75 1014.0
20260506134401 12 26 11.3 25.7 0.00 0.00 0.00 75 1013.5
20260506134352 12 30 12.9 24.1 0.00 0.00 0.00 75 1013.4
20260506133340 12 40 11.3 24.1 0.00 0.00 0.00 74 1013.6
20260506132831 12 357 11.3 27.4 0.00 0.00 0.00 74 1013.3
20260506132320 12 7 11.3 27.4 0.00 0.00 0.00 74 1013.3
20260506131809 12 29 12.9 27.4 0.00 0.00 0.00 74 1013.2
20260506131259 12 37 12.9 27.4 0.00 0.00 0.00 73 1013.1
20260506130747 12 20 12.9 22.5 0.00 0.00 0.00 73 1012.9
20260506130738 12 12 12.9 22.5 0.00 0.00 0.00 72 1012.7
20260506125729 12 33 11.3 25.7 0.00 0.00 0.00 72 1012.8
20260506125219 12 359 11.3 25.7 0.00 0.00 0.00 72 1012.8
20260506124709 12 20 9.7 16.1 0.00 0.00 0.00 72 1012.7
20260506124201 12 9 9.7 17.7 0.00 0.00 0.00 71 1012.8
20260506123653 12 355 9.7 19.3 0.00 0.00 0.00 71 1012.6
20260506123147 12 23 11.3 22.5 0.00 0.00 0.00 72 1012.7
20260506122646 12 10 12.9 29.0 0.00 0.00 0.00 71 1012.6
20260506122136 12 31 12.9 29.0 0.00 0.00 0.00 71 1012.3
20260506121631 13 21 11.3 20.9 0.00 0.00 0.00 71 1012.3
20260506121126 13 355 11.3 25.7 0.00 0.00 0.00 71 1012.3
20260506120625 13 5 9.7 25.7 0.00 0.00 0.00 71 1012.4
20260506120124 13 354 6.4 20.9 0.00 0.00 0.00 71 1012.2
20260506115626 13 9 8.0 20.9 0.00 0.00 0.00 71 1012.2
20260506115119 13 12 8.0 20.9 0.00 0.00 0.00 71 1012.3
20260506114615 13 328 6.4 19.3 0.00 0.00 0.00 71 1012.1
20260506114111 13 349 8.0 19.3 0.00 0.00 0.00 71 1012.0
20260506113602 13 19 8.0 19.3 0.00 0.00 0.00 71 1012.0
20260506113055 13 10 8.0 16.1 0.00 0.00 0.00 71 1011.6
20260506112551 13 9 8.0 25.7 0.00 0.00 0.00 71 1011.7
20260506112042 13 22 8.0 25.7 0.00 0.00 0.00 71 1011.7
20260506111539 13 8 9.7 22.5 0.00 0.00 0.00 71 1011.4
20260506111036 13 353 8.0 22.5 0.00 0.00 0.00 71 1011.4
20260506110532 13 340 8.0 20.9 0.00 0.00 0.00 71 1011.4
20260506110028 13 359 8.0 17.7 0.00 0.00 0.00 71 1011.5
20260506105527 13 338 8.0 22.5 0.00 0.00 0.00 71 1011.2
20260506105521 13 318 9.7 17.7 0.00 0.00 0.00 71 1011.2
20260506104512 14 353 9.7 22.5 0.00 0.00 0.00 71 1011.1
20260506104002 14 18 9.7 20.9 0.00 0.00 0.00 71 1011.1
20260506103455 14 1 9.7 20.9 0.00 0.00 0.00 71 1010.8
20260506102952 14 22 8.0 17.7 0.00 0.00 0.00 71 1010.6
20260506102945 14 2 8.0 17.7 0.00 0.00 0.00 71 1010.5
20260506101934 14 1 9.7 19.3 0.00 0.00 0.00 71 1010.4
20260506101428 14 10 9.7 24.1 0.00 0.00 0.00 71 1010.4
20260506100919 14 22 9.7 24.1 0.00 0.00 0.00 71 1010.3
20260506100414 15 18 8.0 22.5 0.00 0.00 0.00 71 1010.2
20260506100408 15 345 4.8 14.5 0.00 0.00 0.00 71 1010.2
20260506095358 15 2 6.4 14.5 0.00 0.00 0.00 71 1010.0
20260506094850 15 5 6.4 14.5 0.00 0.00 0.00 71 1010.0
20260506094340 15 353 6.4 14.5 0.00 0.00 0.00 71 1010.1
20260506094331 15 8 6.4 14.5 0.00 0.00 0.00 71 1010.0
20260506093320 15 18 6.4 19.3 0.00 0.00 0.00 71 1009.9
20260506092810 15 22 6.4 19.3 0.00 0.00 0.00 71 1009.9
20260506092752 15 12 8.0 19.3 0.00 0.00 0.00 71 1009.8
20260506092356 15 11 8.0 19.3 0.00 0.00 0.00 72 1009.8
20260506091240 15 28 8.0 17.7 0.00 0.00 0.00 71 1009.9
20260506091231 15 14 9.7 16.1 0.00 0.00 0.00 71 1009.9
20260506090220 15 37 9.7 19.3 0.00 0.00 0.00 71 1009.8
20260506090211 15 16 8.0 17.7 0.00 0.00 0.00 71 1009.9
20260506085200 15 20 6.4 16.1 0.00 0.00 0.00 71 1009.8
20260506084650 15 5 8.0 17.7 0.00 0.00 0.00 71 1009.7
20260506084140 15 26 8.0 17.7 0.00 0.00 0.00 71 1009.6
20260506083630 15 42 8.0 17.7 0.00 0.00 0.00 71 1009.5
20260506083120 15 353 8.0 17.7 0.00 0.00 0.00 71 1009.5
20260506083111 16 24 9.7 17.7 0.00 0.00 0.00 71 1009.4
20260506082556 16 55 9.7 17.7 0.00 0.00 0.00 71 1009.5
20260506081554 16 6 8.0 17.7 0.00 0.00 0.00 71 1009.5
20260506081044 16 28 8.0 16.1 0.00 0.00 0.00 72 1009.4
20260506081035 16 356 9.7 17.7 0.00 0.00 0.00 71 1009.3
20260506073449 16 40 4.8 14.5 0.00 0.00 0.00 72 1009.1
20260506072948 16 6 6.4 16.1 0.00 0.00 0.00 72 1009.2
20260506072445 16 11 6.4 17.7 0.00 0.00 0.00 72 1009.3
20260506071946 16 15 8.0 16.1 0.00 0.00 0.00 72 1009.1
20260506071436 16 27 8.0 17.7 0.00 0.00 0.00 73 1009.2
20260506070926 16 35 6.4 16.1 0.00 0.00 0.00 73 1009.3
20260506070416 16 33 9.7 17.7 0.00 0.00 0.00 73 1009.2
20260506062254 17 15 9.7 19.3 0.00 0.00 0.00 71 1009.0
20260506061742 17 19 9.7 19.3 0.00 0.00 0.00 72 1009.1
20260506061733 16 357 11.3 19.3 0.00 0.00 0.00 72 1009.1
20260506060722 17 30 11.3 19.3 0.00 0.00 0.00 72 1009.0
20260506060212 17 5 9.7 20.9 0.00 0.00 0.00 71 1009.2
20260506051024 18 288 8.0 17.7 0.00 0.00 0.00 70 1009.2
20260506050514 18 12 6.4 14.5 0.00 0.00 0.00 70 1009.1
20260506044453 19 6 8.0 19.3 0.00 0.00 0.00 69 1008.9
20260506043951 19 357 9.7 19.3 0.00 0.00 0.00 69 1008.9
20260506043946 19 28 9.7 25.7 0.00 0.00 0.00 69 1009.0
20260506042937 19 332 11.3 25.7 0.00 0.00 0.00 69 1009.1
20260506042428 19 53 11.3 25.7 0.00 0.00 0.00 69 1009.0
20260506041914 20 25 11.3 25.7 0.00 0.00 0.00 68 1009.0
20260506041409 20 20 8.0 20.9 0.00 0.00 0.00 68 1008.9
20260506040906 20 6 8.0 17.7 0.00 0.00 0.00 68 1008.8
20260506040402 20 320 6.4 17.7 0.00 0.00 0.00 68 1008.8
20260506035850 20 7 4.8 14.5 0.00 0.00 0.00 68 1008.7
20260506035345 20 338 8.0 19.3 0.00 0.00 0.00 68 1008.4
20260506034839 20 10 9.7 19.3 0.00 0.00 0.00 68 1008.0
20260506034330 20 22 11.3 22.5 0.00 0.00 0.00 68 1008.3
20260506033825 20 13 11.3 22.5 0.00 0.00 0.00 67 1008.3
20260506033818 20 24 9.7 19.3 0.00 0.00 0.00 67 1008.2
20260506032806 20 28 11.3 22.5 0.00 0.00 0.00 66 1008.0
20260506032754 21 10 11.3 20.9 0.00 0.00 0.00 65 1007.8
20260506032359 20 6 11.3 22.5 0.00 0.00 0.00 65 1007.9
20260506031241 21 42 9.7 17.7 0.00 0.00 0.00 64 1007.7
20260506030733 21 0 8.0 17.7 0.00 0.00 0.00 63 1007.9
20260506030225 21 39 9.7 22.5 0.00 0.00 0.00 63 1007.6
20260506030218 21 44 9.7 22.5 0.00 0.00 0.00 63 1007.6
20260506025207 21 313 9.7 22.5 0.00 0.00 0.00 64 1007.7
20260506024657 21 12 8.0 22.5 0.00 0.00 0.00 64 1007.5
20260506024146 21 355 8.0 22.5 0.00 0.00 0.00 64 1007.4
20260506023636 21 48 11.3 22.5 0.00 0.00 0.00 64 1007.3
20260506023631 22 29 11.3 27.4 0.00 0.00 0.00 64 1007.2
20260506022115 22 8 9.7 19.3 0.00 0.00 0.00 63 1006.9
20260506022107 22 7 9.7 19.3 0.00 0.00 0.00 63 1006.8
20260506021056 22 325 11.3 22.5 0.00 0.00 0.00 64 1006.7
20260506021046 22 7 9.7 22.5 0.00 0.00 0.00 63 1006.5
20260506020036 23 5 8.0 17.7 0.00 0.00 0.00 62 1006.1
20260506015527 23 351 9.7 17.7 0.00 0.00 0.00 62 1006.1
20260506015030 23 37 8.0 17.7 0.00 0.00 0.00 62 1005.9
20260506015026 23 9 9.7 17.7 0.00 0.00 0.00 62 1005.7
20260506014026 23 53 6.4 17.7 0.00 0.00 0.00 62 1006.0
20260506013516 23 32 8.0 17.7 0.00 0.00 0.00 61 1005.7
20260506013007 24 40 9.7 20.9 0.00 0.00 0.00 61 1005.7
20260506012446 24 23 9.7 24.1 0.00 0.00 0.00 61 1005.3
20260506011946 24 9 9.7 24.1 0.00 0.00 0.00 60 1005.2
20260506011436 25 30 11.3 29.0 0.00 0.00 0.00 60 1005.2
20260506010926 25 41 11.3 29.0 0.00 0.00 0.00 60 1005.4
20260506010416 25 27 9.7 17.7 0.00 0.00 0.00 59 1005.4
20260506005905 25 17 9.7 17.7 0.00 0.00 0.00 58 1005.3
20260506005356 26 35 8.0 17.7 0.00 0.00 0.00 58 1005.1
20260506004846 26 352 6.4 16.1 0.00 0.00 0.00 58 1005.0
20260506004336 26 15 6.4 17.7 0.00 0.00 0.00 58 1004.7
20260506003826 26 349 8.0 17.7 0.00 0.00 0.00 58 1004.9
20260506003316 26 13 9.7 19.3 0.00 0.00 0.00 57 1004.9
20260506002806 26 15 9.7 19.3 0.00 0.00 0.00 56 1004.8
20260506002256 27 26 8.0 19.3 0.00 0.00 0.00 56 1004.7
20260506001746 27 28 8.0 19.3 0.00 0.00 0.00 55 1004.7
20260506001236 27 349 8.0 24.1 0.00 0.00 0.00 54 1004.6
20260506000726 28 329 6.4 24.1 0.00 0.00 0.00 55 1004.7
20260506000219 28 354 6.4 16.1 0.00 0.00 0.00 56 1004.6
20260506000207 28 15 9.7 19.3 0.00 0.00 0.00 54 1004.6
20260505235656 28 1 9.7 19.3 0.00 0.00 0.00 53 1004.4
20260505234645 29 22 6.4 17.7 0.00 0.00 0.00 52 1004.3
20260505234136 29 38 6.4 20.9 0.00 0.00 0.00 52 1004.3
20260505233626 30 26 6.4 20.9 0.00 0.00 0.00 51 1004.1
20260505233116 30 10 8.0 17.7 0.00 0.00 0.00 50 1004.0
20260505232606 30 17 8.0 17.7 0.00 0.00 0.00 49 1003.9
20260505232106 30 359 6.4 16.1 0.00 0.00 0.00 50 1003.9
20260505231556 30 359 6.4 16.1 0.00 0.00 0.00 51 1003.8
20260505231056 30 354 6.4 16.1 0.00 0.00 0.00 49 1003.7
20260505230546 30 355 4.8 14.5 0.00 0.00 0.00 50 1003.6
20260505230537 30 23 4.8 14.5 0.00 0.00 0.00 59 1003.7
20260505230026 31 188 4.8 16.1 0.00 0.00 0.00 57 1003.5
20260505225016 31 189 3.2 12.9 0.00 0.00 0.00 57 1003.3
20260505224959 32 236 1.6 8.0 0.00 0.00 0.00 47 1003.2
20260505224602 31 230 3.2 8.0 0.00 0.00 0.00 51 1003.2
20260505223446 31 262 1.6 8.0 0.00 0.00 0.00 48 1003.2
20260505222936 32 163 3.2 11.3 0.00 0.00 0.00 46 1003.1
20260505222424 32 299 3.2 11.3 0.00 0.00 0.00 46 1003.1
20260505221914 32 313 3.2 14.5 0.00 0.00 0.00 46 1003.1
20260505221402 32 281 3.2 14.5 0.00 0.00 0.00 46 1002.9
20260505220852 32 202 4.8 14.5 0.00 0.00 0.00 49 1002.9
20260505220342 32 286 4.8 14.5 0.00 0.00 0.00 49 1003.0
20260505215832 32 195 4.8 12.9 0.00 0.00 0.00 50 1003.0
20260505215323 32 232 3.2 12.9 0.00 0.00 0.00 52 1003.1
20260505214812 32 243 4.8 11.3 0.00 0.00 0.00 51 1003.0
20260505214302 32 214 6.4 17.7 0.00 0.00 0.00 51 1003.2
20260505214253 32 293 6.4 17.7 0.00 0.00 0.00 50 1003.2
20260505213242 32 247 4.8 14.5 0.00 0.00 0.00 52 1003.2
20260505212732 31 199 6.4 17.7 0.00 0.00 0.00 51 1003.2
20260505212222 31 169 6.4 19.3 0.00 0.00 0.00 52 1003.3
20260505211713 32 226 6.4 19.3 0.00 0.00 0.00 51 1003.4
20260505211202 32 240 6.4 17.7 0.00 0.00 0.00 51 1003.4
20260505211154 32 188 6.4 17.7 0.00 0.00 0.00 51 1003.5
20260505210142 31 251 6.4 16.1 0.00 0.00 0.00 53 1003.6
20260505205631 31 262 6.4 16.1 0.00 0.00 0.00 54 1003.8
20260505205124 31 207 6.4 25.7 0.00 0.00 0.00 52 1003.9
20260505204614 32 302 6.4 25.7 0.00 0.00 0.00 52 1003.8
20260505204109 31 240 4.8 16.1 0.00 0.00 0.00 56 1003.7
20260505203558 31 215 6.4 17.7 0.00 0.00 0.00 54 1003.9
20260505203052 31 288 6.4 17.7 0.00 0.00 0.00 53 1004.0
20260505202534 31 222 6.4 20.9 0.00 0.00 0.00 54 1004.1
20260505202024 31 240 8.0 20.9 0.00 0.00 0.00 53 1004.1
20260505201516 31 247 9.7 25.7 0.00 0.00 0.00 55 1004.1
20260505201006 31 262 8.0 25.7 0.00 0.00 0.00 54 1004.1
20260505200458 31 174 6.4 24.1 0.00 0.00 0.00 56 1004.3
20260505200451 31 238 6.4 16.1 0.00 0.00 0.00 57 1004.3